EZY39CH EGCC-EGNS

Flight info

Callsign EZY39CH
Flight time 0h 26m
Altitude 18000
Route EKLAD Y53 WAL M146 LUSOD DCT IOM
Aircraft A320/M-SDE1E2E3FGHIRWXY/LB1

Departure

Time 2026-04-18 09:36
Airport Manchester Airport (EGCC)

Arrival

Time 2026-04-18 10:03
Airport Isle of Man Airport (EGNS)
Time Latitude Longitude Altitude Speed Heading
2026-04-18 09:10 53.36903 -2.28538 255 ft 0 kts 315°
2026-04-18 09:11 53.36897 -2.28530 255 ft 0 kts 315°
2026-04-18 09:24 53.36889 -2.28516 255 ft 4 kts 315°
2026-04-18 09:24 53.36870 -2.28484 255 ft 4 kts 315°
2026-04-18 09:25 53.36851 -2.28452 255 ft 4 kts 315°
2026-04-18 09:25 53.36841 -2.28434 255 ft 2 kts 315°
2026-04-18 09:25 53.36848 -2.28466 255 ft 4 kts 270°
2026-04-18 09:25 53.36836 -2.28492 255 ft 1 kts 224°
2026-04-18 09:26 53.36818 -2.28521 255 ft 4 kts 224°
2026-04-18 09:26 53.36812 -2.28531 255 ft 0 kts 224°
2026-04-18 09:28 53.36812 -2.28532 255 ft 0 kts 224°
2026-04-18 09:29 53.36790 -2.28567 255 ft 11 kts 224°
2026-04-18 09:29 53.36719 -2.28684 255 ft 16 kts 224°
2026-04-18 09:29 53.36627 -2.28781 255 ft 16 kts 199°
2026-04-18 09:29 53.36539 -2.28690 255 ft 15 kts 134°
2026-04-18 09:30 53.36470 -2.28572 255 ft 13 kts 135°
2026-04-18 09:30 53.36414 -2.28458 255 ft 13 kts 117°
2026-04-18 09:30 53.36368 -2.28324 255 ft 4 kts 135°
2026-04-18 09:30 53.36350 -2.28293 255 ft 3 kts 135°
2026-04-18 09:31 53.36315 -2.28235 255 ft 13 kts 134°
2026-04-18 09:31 53.36247 -2.28120 255 ft 14 kts 135°
2026-04-18 09:31 53.36183 -2.28013 255 ft 12 kts 135°
2026-04-18 09:31 53.36103 -2.27904 255 ft 15 kts 142°
2026-04-18 09:32 53.36022 -2.27798 255 ft 15 kts 142°
2026-04-18 09:32 53.35912 -2.27725 255 ft 19 kts 180°
2026-04-18 09:32 53.35778 -2.27681 251 ft 22 kts 143°
2026-04-18 09:32 53.35655 -2.27569 246 ft 17 kts 140°
2026-04-18 09:33 53.35565 -2.27448 245 ft 18 kts 142°
2026-04-18 09:33 53.35457 -2.27302 248 ft 20 kts 141°
2026-04-18 09:33 53.35335 -2.27190 244 ft 21 kts 177°
2026-04-18 09:33 53.35186 -2.27238 232 ft 11 kts 191°
2026-04-18 09:34 53.35161 -2.27246 231 ft 1 kts 191°
2026-04-18 09:34 53.35152 -2.27249 231 ft 1 kts 191°
2026-04-18 09:34 53.35117 -2.27261 229 ft 10 kts 191°
2026-04-18 09:34 53.35030 -2.27295 226 ft 15 kts 204°
2026-04-18 09:35 53.34992 -2.27355 225 ft 0 kts 231°
2026-04-18 09:35 53.34991 -2.27358 225 ft 2 kts 231°
2026-04-18 09:35 53.34893 -2.27562 222 ft 58 kts 231°
2026-04-18 09:35 53.34497 -2.28379 226 ft 120 kts 231°
2026-04-18 09:36 53.33875 -2.29670 370 ft 155 kts 233°
2026-04-18 09:36 53.33214 -2.31060 1064 ft 155 kts 234°
2026-04-18 09:36 53.32547 -2.32519 1717 ft 165 kts 236°
2026-04-18 09:36 53.31901 -2.34247 2075 ft 187 kts 249°
2026-04-18 09:37 53.31631 -2.36492 2463 ft 210 kts 271°
2026-04-18 09:37 53.31914 -2.39026 2968 ft 232 kts 283°
2026-04-18 09:37 53.32295 -2.41687 3838 ft 238 kts 278°
2026-04-18 09:37 53.32323 -2.44479 4676 ft 245 kts 264°
2026-04-18 09:38 53.31921 -2.47255 4947 ft 246 kts 255°
2026-04-18 09:38 53.31419 -2.49990 5007 ft 246 kts 254°
2026-04-18 09:38 53.30908 -2.52710 5006 ft 245 kts 254°
2026-04-18 09:38 53.30399 -2.55429 5013 ft 245 kts 254°
2026-04-18 09:39 53.29898 -2.58120 5010 ft 246 kts 255°
2026-04-18 09:39 53.29393 -2.60839 5009 ft 245 kts 255°
2026-04-18 09:39 53.28888 -2.63562 5012 ft 246 kts 255°
2026-04-18 09:39 53.28384 -2.66283 5018 ft 245 kts 255°
2026-04-18 09:40 53.27882 -2.69004 5017 ft 246 kts 254°
2026-04-18 09:40 53.27369 -2.71781 5499 ft 252 kts 255°
2026-04-18 09:40 53.26853 -2.74564 6587 ft 251 kts 255°
2026-04-18 09:40 53.26333 -2.77362 7494 ft 254 kts 255°
2026-04-18 09:41 53.25984 -2.80253 8368 ft 255 kts 269°
2026-04-18 09:41 53.26174 -2.83158 9242 ft 258 kts 286°
2026-04-18 09:41 53.26914 -2.85888 10114 ft 262 kts 303°
2026-04-18 09:41 53.28026 -2.88391 10648 ft 278 kts 305°
2026-04-18 09:42 53.29232 -2.91075 10975 ft 298 kts 305°
2026-04-18 09:42 53.30488 -2.93879 11632 ft 305 kts 305°
2026-04-18 09:42 53.31771 -2.96745 12378 ft 309 kts 305°
2026-04-18 09:42 53.33067 -2.99647 13134 ft 314 kts 305°
2026-04-18 09:43 53.34378 -3.02590 13883 ft 318 kts 305°
2026-04-18 09:43 53.35703 -3.05577 14556 ft 322 kts 304°
2026-04-18 09:43 53.37024 -3.08556 15222 ft 325 kts 304°
2026-04-18 09:43 53.38384 -3.11612 15866 ft 329 kts 304°
2026-04-18 09:44 53.39857 -3.14570 16500 ft 334 kts 312°
2026-04-18 09:44 53.41502 -3.17355 17161 ft 337 kts 311°
2026-04-18 09:44 53.43157 -3.20167 17812 ft 340 kts 311°
2026-04-18 09:44 53.44262 -3.22054 18085 ft 343 kts 311°
2026-04-18 09:45 53.46480 -3.25844 18195 ft 332 kts 311°
2026-04-18 09:45 53.48057 -3.28534 18200 ft 326 kts 311°
2026-04-18 09:45 53.49640 -3.31235 18207 ft 324 kts 311°
2026-04-18 09:45 53.51220 -3.33935 18198 ft 324 kts 311°
2026-04-18 09:46 53.52796 -3.36633 18208 ft 323 kts 311°
2026-04-18 09:46 53.54370 -3.39334 18201 ft 323 kts 311°
2026-04-18 09:46 53.55971 -3.42091 18205 ft 337 kts 311°
2026-04-18 09:46 53.57610 -3.44947 18201 ft 341 kts 308°
2026-04-18 09:47 53.59022 -3.48108 18199 ft 333 kts 302°
2026-04-18 09:47 53.60321 -3.51184 18064 ft 321 kts 302°
2026-04-18 09:47 53.61589 -3.54195 17910 ft 310 kts 302°
2026-04-18 09:47 53.62817 -3.57111 17712 ft 302 kts 302°
2026-04-18 09:48 53.64021 -3.59973 17363 ft 298 kts 302°
2026-04-18 09:48 53.65214 -3.62819 16989 ft 296 kts 302°
2026-04-18 09:48 53.66398 -3.65653 16595 ft 295 kts 302°
2026-04-18 09:48 53.67576 -3.68467 16224 ft 293 kts 303°
2026-04-18 09:49 53.68749 -3.71270 15882 ft 292 kts 303°
2026-04-18 09:49 53.69522 -3.73116 15656 ft 290 kts 303°
2026-04-18 09:49 53.71068 -3.76817 15216 ft 287 kts 303°
2026-04-18 09:49 53.72194 -3.79526 14881 ft 285 kts 303°
2026-04-18 09:50 53.73329 -3.82257 14550 ft 283 kts 303°
2026-04-18 09:50 53.74459 -3.84974 14230 ft 283 kts 303°
2026-04-18 09:50 53.75589 -3.87693 13921 ft 282 kts 303°
2026-04-18 09:50 53.76711 -3.90399 13591 ft 280 kts 303°
2026-04-18 09:51 53.77940 -3.92926 13245 ft 280 kts 319°
2026-04-18 09:51 53.79667 -3.94458 12893 ft 283 kts 337°
2026-04-18 09:51 53.81545 -3.95477 12532 ft 283 kts 339°
2026-04-18 09:51 53.83421 -3.96435 12189 ft 281 kts 340°
2026-04-18 09:52 53.85265 -3.97371 11842 ft 279 kts 340°
2026-04-18 09:52 53.87116 -3.98314 11491 ft 277 kts 340°
2026-04-18 09:52 53.88957 -3.99259 11131 ft 275 kts 340°
2026-04-18 09:52 53.90779 -4.00197 10790 ft 273 kts 339°
2026-04-18 09:53 53.92590 -4.01129 10470 ft 270 kts 340°
2026-04-18 09:53 53.94367 -4.02044 9967 ft 265 kts 339°
2026-04-18 09:53 53.95534 -4.02646 9504 ft 264 kts 340°
2026-04-18 09:53 53.97869 -4.03866 8578 ft 261 kts 340°
2026-04-18 09:54 53.99588 -4.04772 7906 ft 258 kts 339°
2026-04-18 09:54 54.00720 -4.05372 7478 ft 256 kts 340°
2026-04-18 09:54 54.02950 -4.06568 6600 ft 252 kts 340°
2026-04-18 09:54 54.04613 -4.07479 5893 ft 251 kts 340°
2026-04-18 09:55 54.06264 -4.08393 5242 ft 247 kts 339°
2026-04-18 09:55 54.07750 -4.09695 4758 ft 232 kts 321°
2026-04-18 09:55 54.08562 -4.10790 4667 ft 218 kts 320°
2026-04-18 09:55 54.10039 -4.12833 4485 ft 193 kts 320°
2026-04-18 09:56 54.10712 -4.13761 4390 ft 182 kts 320°
2026-04-18 09:56 54.11665 -4.15072 4181 ft 171 kts 319°
2026-04-18 09:56 54.12579 -4.16345 3805 ft 169 kts 314°
2026-04-18 09:56 54.13382 -4.18566 3294 ft 168 kts 287°
2026-04-18 09:57 54.13474 -4.20537 3003 ft 168 kts 266°
2026-04-18 09:57 54.13327 -4.21856 3008 ft 172 kts 263°
2026-04-18 09:57 54.13084 -4.23852 2992 ft 173 kts 263°
2026-04-18 09:57 54.12839 -4.25865 2997 ft 174 kts 263°
2026-04-18 09:58 54.12594 -4.27879 3001 ft 173 kts 263°
2026-04-18 09:58 54.12347 -4.29902 3007 ft 174 kts 262°
2026-04-18 09:58 54.12102 -4.31902 3007 ft 173 kts 263°
2026-04-18 09:58 54.11855 -4.33914 3009 ft 173 kts 263°
2026-04-18 09:59 54.11608 -4.35925 2977 ft 174 kts 264°
2026-04-18 09:59 54.11361 -4.37935 2812 ft 173 kts 263°
2026-04-18 09:59 54.11116 -4.39927 2598 ft 171 kts 263°
2026-04-18 10:00 54.10631 -4.43856 2141 ft 169 kts 263°
2026-04-18 10:00 54.10390 -4.45808 1909 ft 168 kts 263°
2026-04-18 10:00 54.10149 -4.47757 1674 ft 168 kts 263°
2026-04-18 10:00 54.09906 -4.49726 1444 ft 174 kts 262°
2026-04-18 10:01 54.09665 -4.51650 1194 ft 156 kts 262°
2026-04-18 10:01 54.09451 -4.53364 1000 ft 141 kts 261°
2026-04-18 10:01 54.09251 -4.54961 815 ft 137 kts 261°
2026-04-18 10:01 54.09055 -4.56539 618 ft 135 kts 261°
2026-04-18 10:02 54.08861 -4.58067 464 ft 133 kts 261°
2026-04-18 10:02 54.08660 -4.59605 263 ft 134 kts 263°
2026-04-18 10:02 54.08483 -4.61149 68 ft 132 kts 260°
2026-04-18 10:02 54.08311 -4.62536 36 ft 87 kts 258°
2026-04-18 10:03 54.08239 -4.63092 40 ft 27 kts 258°
2026-04-18 10:03 54.08235 -4.63306 39 ft 12 kts 311°
2026-04-18 10:03 54.08315 -4.63349 39 ft 11 kts 346°
2026-04-18 10:03 54.08329 -4.63355 41 ft 0 kts 346°
2026-04-18 10:04 54.08336 -4.63358 41 ft 3 kts 346°
2026-04-18 10:04 54.08368 -4.63333 40 ft 10 kts 41°
2026-04-18 10:04 54.08395 -4.63153 36 ft 17 kts 78°
2026-04-18 10:04 54.08423 -4.63002 38 ft 9 kts 32°
2026-04-18 10:05 54.08481 -4.63003 38 ft 9 kts 349°
2026-04-18 10:05 54.08545 -4.63026 39 ft 10 kts 348°
2026-04-18 10:05 54.08607 -4.63094 40 ft 11 kts 314°
2026-04-18 10:05 54.08617 -4.63191 38 ft 8 kts 238°
2026-04-18 10:06 54.08609 -4.63205 40 ft 0 kts 224°
2026-04-18 10:06 54.08607 -4.63209 40 ft 1 kts 226°
2026-04-18 10:06 54.08603 -4.63216 40 ft 0 kts 225°